Date,TemperatureHighF,TemperatureAvgF,TemperatureLowF,DewpointHighF,DewpointAvgF,DewpointLowF,HumidityHigh,HumidityAvg,HumidityLow,PressureMaxIn,PressureMinIn,WindSpeedMaxMPH,WindSpeedAvgMPH,GustSpeedMaxMPH,PrecipitationSumIn
2013-1-5,80,78,80,74,68,-100,82,77,77,0.00,0.00,19,-17,20,0.00
2013-1-6,80,79,76,75,73,71,89,80,75,0.00,0.00,18,10,20,0.00
2013-1-7,80,78,72,75,73,69,95,85,78,0.00,0.00,17,10,18,0.00
2013-1-8,81,80,79,74,73,71,81,78,75,0.00,0.00,27,17,27,0.00
2013-1-9,82,81,80,76,75,73,86,83,79,0.00,0.00,23,19,26,0.00
2013-1-10,82,81,80,76,75,74,86,83,80,0.00,0.00,25,18,30,0.00
2013-1-11,81,79,79,74,71,-100,83,78,74,0.00,0.00,20,4,22,0.00
2013-1-12,81,79,73,75,73,70,92,82,76,0.00,0.00,24,15,30,0.06
2013-1-13,82,80,79,74,73,71,82,77,72,0.00,0.00,24,15,26,0.00
2013-1-14,81,80,78,75,74,71,84,82,79,0.00,0.00,19,14,22,0.01
2013-1-15,80,79,79,74,72,70,83,77,73,0.00,0.00,22,15,24,0.00
2013-1-16,80,79,78,73,72,70,80,77,72,0.00,0.00,15,10,17,0.00
2013-1-17,80,72,67,72,67,63,93,83,75,0.00,0.00,21,8,26,0.00
2013-1-18,74,67,66,62,56,-100,83,72,60,0.00,0.00,18,-25,27,0.00
2013-1-19,78,71,64,66,63,61,90,77,63,0.00,0.00,13,6,16,0.00
2013-1-20,77,70,60,67,63,58,92,78,64,0.00,0.00,12,6,17,0.00
2013-1-21,78,72,65,69,66,62,91,81,69,0.00,0.00,16,7,19,0.00
2013-1-22,78,73,66,71,68,64,95,84,73,0.00,0.00,17,9,20,0.00
2013-1-23,77,71,67,71,68,65,94,88,73,0.00,0.00,15,6,18,0.10
2013-1-24,77,71,68,71,68,66,96,91,78,0.00,0.00,16,7,22,1.45
2013-1-25,77,76,70,70,68,66,95,77,69,0.00,0.00,22,14,26,0.24
2013-1-26,78,74,66,67,65,61,85,75,65,0.00,0.00,15,8,19,0.00
2013-1-27,80,75,66,75,71,64,94,85,79,0.00,0.00,19,11,20,0.00
2013-1-28,80,80,79,76,74,72,88,84,79,0.00,0.00,19,15,21,0.00
2013-1-29,81,80,73,76,75,71,95,85,79,0.00,0.00,23,14,29,0.63
2013-1-30,82,79,78,76,73,-100,87,83,78,0.00,0.00,24,1,27,0.06
2013-1-31,79,74,71,75,72,69,96,91,81,0.00,0.00,14,7,18,0.07
2013-2-1,75,72,68,71,68,64,95,87,78,0.00,0.00,21,8,29,0.10
2013-2-2,78,73,65,73,68,63,95,86,75,0.00,0.00,16,7,18,0.59
2013-2-3,78,72,66,72,66,61,96,82,62,0.00,0.00,23,9,29,0.02
2013-2-4,77,71,62,71,65,58,88,79,68,0.00,0.00,13,8,15,0.00
2013-2-5,80,79,76,74,72,69,84,80,75,0.00,0.00,15,11,16,0.00
2013-2-6,80,79,78,74,72,71,85,80,74,0.00,0.00,17,12,17,0.00
2013-2-7,82,80,78,74,73,72,85,80,74,0.00,0.00,16,12,18,0.00
2013-2-8,82,80,79,74,73,72,83,80,75,0.00,0.00,13,8,15,0.00
2013-2-9,80,78,70,74,72,68,93,81,76,0.00,0.00,15,9,17,0.00
2013-2-10,81,80,79,74,73,71,82,79,73,0.00,0.00,20,15,24,0.00
2013-2-11,81,80,79,75,73,71,84,79,75,0.00,0.00,22,16,24,0.00
2013-2-12,82,80,79,75,74,73,86,81,76,0.00,0.00,19,14,21,0.00
2013-2-13,82,80,79,75,74,73,86,81,73,0.00,0.00,16,11,19,0.00
2013-2-14,82,80,79,76,75,73,87,82,77,0.00,0.00,19,12,22,0.00
2013-2-15,81,78,73,75,73,69,94,84,77,0.00,0.00,11,5,14,0.07
2013-2-16,81,72,62,72,64,55,95,76,54,0.00,0.00,25,9,31,0.00
2013-2-17,74,68,57,61,56,53,86,67,53,0.00,0.00,22,9,24,0.00
2013-2-18,76,73,72,65,61,55,73,66,52,0.00,0.00,24,17,28,0.00
2013-2-19,79,76,66,74,70,62,93,82,67,0.00,0.00,17,11,19,0.68
2013-2-20,79,78,72,74,72,69,92,82,78,0.00,0.00,20,13,21,0.00
2013-2-21,81,80,79,74,74,73,85,81,77,0.00,0.00,16,14,18,0.00
2013-2-22,82,80,79,75,74,73,84,80,74,0.00,0.00,18,14,23,0.00
2013-2-23,82,80,79,75,73,72,85,79,70,0.00,0.00,21,14,22,0.00
2013-2-24,82,80,79,74,73,72,84,79,73,0.00,0.00,20,13,24,0.00
2013-2-25,82,80,79,74,73,71,83,78,73,0.00,0.00,24,16,29,0.00
2013-2-26,82,79,71,77,74,69,95,86,79,0.00,0.00,16,10,19,0.15
2013-2-27,82,78,71,77,75,70,97,90,81,0.00,0.00,15,7,18,0.01
2013-2-28,80,76,72,76,73,71,97,90,82,0.00,0.00,11,5,18,0.64
2013-3-1,77,71,67,71,66,59,97,86,72,0.00,0.00,23,9,27,0.17
2013-3-2,74,67,58,60,53,40,84,63,29,0.00,0.00,24,9,32,0.00
2013-3-3,74,64,54,54,51,48,89,66,41,0.00,0.00,23,8,30,0.00
2013-3-4,74,67,54,62,56,49,87,70,54,0.00,0.00,15,8,20,0.00
2013-3-5,76,75,67,65,61,57,78,63,58,0.00,0.00,17,10,23,0.00
2013-3-6,78,70,62,64,61,56,89,73,47,0.00,0.00,22,8,26,0.00
2013-3-7,78,69,61,67,63,59,95,80,64,0.00,0.00,19,8,21,0.00
2013-3-8,75,70,60,64,61,56,87,73,64,0.00,0.00,22,10,22,0.00
2013-3-9,77,76,74,67,63,60,70,64,58,0.00,0.00,19,14,23,0.00
2013-3-12,-200,0,200,-100,-100,-100,0,0,100,0.00,0.00,0,-999,0,0.00
2013-3-13,-200,0,200,-100,-100,-100,0,0,100,0.00,0.00,0,-999,0,0.00
2013-3-14,78,28,70,60,-40,-100,68,24,54,0.00,0.00,0,-623,5,0.00
2013-3-15,76,72,65,64,60,57,76,67,59,0.00,0.00,0,0,1,0.00
2013-3-16,79,77,75,70,66,60,75,69,59,0.00,0.00,0,0,0,0.00
2013-3-17,81,79,77,75,72,69,84,79,75,0.00,0.00,0,0,0,0.00
2013-3-18,84,82,80,78,76,75,87,83,78,0.00,0.00,0,0,0,0.00
2013-3-19,83,82,81,77,76,75,82,81,79,0.00,0.00,0,0,20,0.00
2013-3-20,84,80,80,76,73,-100,84,80,76,0.00,0.00,0,-12,10,0.01
2013-3-21,81,80,79,75,74,74,85,84,82,0.00,0.00,0,0,0,0.00
2013-3-22,83,81,79,77,75,74,85,84,81,0.00,0.00,0,0,0,0.00
2013-3-23,83,81,80,77,76,75,86,84,80,0.00,0.00,0,-120,0,0.00
2013-3-24,83,82,81,78,77,76,85,84,84,0.00,0.00,0,-964,0,0.00
2013-3-25,83,83,83,78,78,78,84,84,84,0.00,0.00,0,-999,0,0.00
2013-3-26,83,83,83,78,78,78,84,84,84,0.00,0.00,0,-999,0,0.00
2013-3-27,83,83,83,78,78,78,84,84,84,0.00,0.00,0,-999,0,0.00
2013-3-28,83,83,83,78,78,78,84,84,84,0.00,0.00,0,-999,0,0.00
2013-3-29,83,83,83,78,78,78,84,84,84,0.00,0.00,0,-999,0,0.00
2013-3-30,83,83,83,78,78,78,84,84,84,0.00,0.00,0,-999,0,0.00
2013-3-31,83,83,83,78,78,78,84,84,84,0.00,0.00,0,-999,0,0.00
2013-4-1,83,83,83,78,78,78,84,84,84,0.00,0.00,0,-999,0,0.00
2013-4-2,83,83,83,78,78,78,84,84,84,0.00,0.00,0,-999,0,0.00
2013-4-3,83,83,83,78,78,78,84,84,84,0.00,0.00,0,-999,0,0.00
2013-4-4,83,83,83,78,78,78,84,84,84,0.00,0.00,0,-999,0,0.00
2013-4-5,83,83,83,78,78,78,84,84,84,0.00,0.00,0,-999,0,0.00
2013-4-6,83,83,83,78,78,78,84,84,84,0.00,0.00,0,-999,0,0.00
2013-4-7,83,83,83,78,78,78,84,84,84,0.00,0.00,0,-999,0,0.00
2013-4-8,83,83,83,78,78,78,84,84,84,0.00,0.00,0,-999,0,0.00
2013-4-9,83,83,83,78,78,78,84,84,84,0.00,0.00,0,-999,0,0.00
2013-4-10,83,83,83,78,78,78,84,84,84,0.00,0.00,0,-999,0,0.00
2013-4-11,83,83,83,78,78,78,84,84,84,0.00,0.00,0,-999,0,0.00
2013-4-12,83,83,83,78,78,78,84,84,84,0.00,0.00,0,-999,0,0.00
2013-4-13,83,83,83,78,78,78,84,84,84,0.00,0.00,0,-999,0,0.00
2013-4-14,83,83,83,78,78,78,84,84,84,0.00,0.00,0,-999,0,0.00
2013-4-15,83,83,83,78,78,78,84,84,84,0.00,0.00,0,-999,0,0.00
2013-4-16,83,83,83,78,78,78,84,84,84,0.00,0.00,0,-999,0,0.00
2013-4-17,83,83,83,78,78,78,84,84,84,0.00,0.00,0,-999,0,0.00
2013-4-18,83,83,83,78,78,78,84,84,84,0.00,0.00,0,-999,0,0.00
2013-4-19,83,83,83,78,78,78,84,84,84,0.00,0.00,0,-999,0,0.00
2013-4-20,83,83,83,78,78,78,84,84,84,0.00,0.00,0,-999,0,0.00
2013-4-21,83,83,83,78,78,78,84,84,84,0.00,0.00,0,-999,0,0.00
2013-4-22,83,83,83,78,78,78,84,84,84,0.00,0.00,0,-999,0,0.00
2013-4-23,83,83,83,78,78,78,84,84,84,0.00,0.00,0,-999,0,0.00
2013-4-24,83,83,83,78,78,78,84,84,84,0.00,0.00,0,-999,0,0.00
2013-4-25,83,83,83,78,78,78,84,84,84,0.00,0.00,0,-999,0,0.00
2013-4-26,83,83,83,78,78,78,84,84,84,0.00,0.00,0,-999,0,0.00
2013-4-27,83,83,83,78,78,78,84,84,84,0.00,0.00,0,-999,0,0.00
2013-4-28,83,83,83,78,78,78,84,84,84,0.00,0.00,0,-999,0,0.00
2013-4-29,83,83,83,78,78,78,84,84,84,0.00,0.00,0,-999,0,0.00
2013-4-30,83,83,83,78,78,78,84,84,84,0.00,0.00,0,-999,0,0.00
2013-5-1,83,83,83,78,78,78,84,84,84,0.00,0.00,0,-999,0,0.00
2013-5-2,83,83,83,78,78,78,84,84,84,0.00,0.00,0,-999,0,0.00
2013-5-3,83,83,83,78,78,78,84,84,84,0.00,0.00,0,-999,0,0.00
2013-5-4,83,83,83,78,78,78,84,84,84,0.00,0.00,0,-999,0,0.00
2013-5-5,83,83,83,78,78,78,84,84,84,0.00,0.00,0,-999,0,0.00
2013-5-6,83,83,83,78,78,78,84,84,84,0.00,0.00,0,-999,0,0.00
2013-5-7,83,83,83,78,78,78,84,84,84,0.00,0.00,0,-999,0,0.00
2013-5-8,83,83,83,78,78,78,84,84,84,0.00,0.00,0,-999,0,0.00
2013-5-9,83,83,83,78,78,78,84,84,84,0.00,0.00,0,-999,0,0.00
2013-5-10,83,83,83,78,78,78,84,84,84,0.00,0.00,0,-999,0,0.00
2013-5-11,83,83,83,78,78,78,84,84,84,0.00,0.00,0,-999,0,0.00
2013-5-12,83,83,83,78,78,78,84,84,84,0.00,0.00,0,-999,0,0.00
2013-5-13,83,83,83,78,78,78,84,84,84,0.00,0.00,0,-999,0,0.00
2013-5-14,83,83,83,78,78,78,84,84,84,0.00,0.00,0,-999,0,0.00
2013-5-15,83,83,83,78,78,78,84,84,84,0.00,0.00,0,-999,0,0.00
2013-5-16,83,83,83,78,78,78,84,84,84,0.00,0.00,0,-999,0,0.00
2013-5-17,83,83,83,78,78,78,84,84,84,0.00,0.00,0,-999,0,0.00
2013-5-18,83,83,83,78,78,78,84,84,84,0.00,0.00,0,-999,0,0.00
2013-5-19,83,83,83,78,78,78,84,84,84,0.00,0.00,0,-999,0,0.00
2013-5-20,83,83,83,78,78,78,84,84,84,0.00,0.00,0,-999,0,0.00
2013-5-21,83,83,83,78,78,78,84,84,84,0.00,0.00,0,-999,0,0.00
2013-5-22,83,83,83,78,78,78,84,84,84,0.00,0.00,0,-999,0,0.00
2013-5-23,83,83,83,78,78,78,84,84,84,0.00,0.00,0,-999,0,0.00
2013-5-24,83,83,83,78,78,78,84,84,84,0.00,0.00,0,-999,0,0.00
2013-5-25,83,83,83,78,78,78,84,84,84,0.00,0.00,0,-999,0,0.00
2013-5-26,83,83,83,78,78,78,84,84,84,0.00,0.00,0,-999,0,0.00
2013-5-27,83,83,83,78,78,78,84,84,84,0.00,0.00,0,-999,0,0.00
2013-5-28,83,83,83,78,78,78,84,84,84,0.00,0.00,0,-999,0,0.00
2013-5-29,83,83,83,78,78,78,84,84,84,0.00,0.00,0,-999,0,0.00
2013-5-30,83,83,83,78,78,78,84,84,84,0.00,0.00,0,-999,0,0.00
2013-5-31,83,83,83,78,78,78,84,84,84,0.00,0.00,0,-999,0,0.00
2013-6-1,83,83,83,78,78,78,84,84,84,0.00,0.00,0,-999,0,0.00
2013-6-2,83,83,83,78,78,78,84,84,84,0.00,0.00,0,-999,0,0.00
2013-6-3,83,83,83,78,78,78,84,84,84,0.00,0.00,0,-999,0,0.00
2013-6-4,83,83,83,78,78,78,84,84,84,0.00,0.00,0,-999,0,0.00
2013-6-5,83,83,83,78,78,78,84,84,84,0.00,0.00,0,-999,0,0.00
2013-6-6,83,83,83,78,78,78,84,84,84,0.00,0.00,0,-999,0,0.00
2013-6-7,83,83,83,78,78,78,84,84,84,0.00,0.00,0,-999,0,0.00
2013-6-8,83,83,83,78,78,78,84,84,84,0.00,0.00,0,-999,0,0.00
2013-6-9,83,83,83,78,78,78,84,84,84,0.00,0.00,0,-999,0,0.00
2013-6-10,83,83,83,78,78,78,84,84,84,0.00,0.00,0,-999,0,0.00
2013-6-11,83,83,83,78,78,78,84,84,84,0.00,0.00,0,-999,0,0.00
2013-6-12,83,83,83,78,78,78,84,84,84,0.00,0.00,0,-999,0,0.00
2013-6-13,83,83,83,78,78,78,84,84,84,0.00,0.00,0,-999,0,0.00
2013-6-14,83,83,83,78,78,78,84,84,84,0.00,0.00,0,-999,0,0.00
2013-6-15,83,83,83,78,78,78,84,84,84,0.00,0.00,0,-999,0,0.00
2013-6-16,83,83,83,78,78,78,84,84,84,0.00,0.00,0,-999,0,0.00
2013-6-17,83,83,83,78,78,78,84,84,84,0.00,0.00,0,-999,0,0.00
2013-6-18,83,83,83,78,78,78,84,84,84,0.00,0.00,0,-999,0,0.00
2013-6-19,83,83,83,78,78,78,84,84,84,0.00,0.00,0,-999,0,0.00
2013-6-20,83,83,83,78,78,78,84,84,84,0.00,0.00,0,-999,0,0.00
2013-6-21,83,83,83,78,78,78,84,84,84,0.00,0.00,0,-999,0,0.00
2013-6-22,83,83,83,78,78,78,84,84,84,0.00,0.00,0,-999,0,0.00
2013-6-23,83,83,83,78,78,78,84,84,84,0.00,0.00,0,-999,0,0.00
2013-6-24,83,83,83,78,78,78,84,84,84,0.00,0.00,0,-999,0,0.00
2013-6-25,-200,0,200,-100,-100,-100,0,0,100,0.00,0.00,0,-999,0,0.00
2013-6-26,-200,0,200,-100,-100,-100,0,0,100,0.00,0.00,0,-999,0,0.00
2013-6-27,-200,0,200,-100,-100,-100,0,0,100,0.00,0.00,0,-999,0,0.00
2013-6-28,-200,0,200,-100,-100,-100,0,0,100,0.00,0.00,0,-999,0,0.00
2013-6-29,-200,0,200,-100,-100,-100,0,0,100,0.00,0.00,0,-999,0,0.00
2013-6-30,-200,0,200,-100,-100,-100,0,0,100,0.00,0.00,0,-999,0,0.00
2013-7-1,-200,0,200,-100,-100,-100,0,0,100,0.00,0.00,0,-999,0,0.00
2013-7-2,-200,0,200,-100,-100,-100,0,0,100,0.00,0.00,0,-999,0,0.00
2013-7-3,-200,0,200,-100,-100,-100,0,0,100,0.00,0.00,0,-999,0,0.00
2013-7-4,-200,0,200,-100,-100,-100,0,0,100,0.00,0.00,0,-999,0,0.00
2013-7-5,-200,0,200,-100,-100,-100,0,0,100,0.00,0.00,0,-999,0,0.00
2013-7-6,-200,0,200,-100,-100,-100,0,0,100,0.00,0.00,0,-999,0,0.00
2013-7-7,-200,0,200,-100,-100,-100,0,0,100,0.00,0.00,0,-999,0,0.00
2013-7-8,-200,0,200,-100,-100,-100,0,0,100,0.00,0.00,0,-999,0,0.00
2013-7-9,-200,0,200,-100,-100,-100,0,0,100,0.00,0.00,0,-999,0,0.00
2013-7-10,-200,0,200,-100,-100,-100,0,0,100,0.00,0.00,0,-999,0,0.00
2013-7-11,-200,0,200,-100,-100,-100,0,0,100,0.00,0.00,0,-999,0,0.00
2013-7-12,-200,0,200,-100,-100,-100,0,0,100,0.00,0.00,0,-999,0,0.00
2013-7-13,-200,0,200,-100,-100,-100,0,0,100,0.00,0.00,0,-999,0,0.00
2013-7-14,-200,0,200,-100,-100,-100,0,0,100,0.00,0.00,0,-999,0,0.00
2013-7-15,-200,0,200,-100,-100,-100,0,0,100,0.00,0.00,0,-999,0,0.00
2013-7-16,-200,0,200,-100,-100,-100,0,0,100,0.00,0.00,0,-999,0,0.00
2013-7-17,-200,0,200,-100,-100,-100,0,0,100,0.00,0.00,0,-999,0,0.00
2013-7-18,-200,0,200,-100,-100,-100,0,0,100,0.00,0.00,0,-999,0,0.00
2013-7-19,-200,0,200,-100,-100,-100,0,0,100,0.00,0.00,0,-999,0,0.00
2013-7-20,-200,0,200,-100,-100,-100,0,0,100,0.00,0.00,0,-999,0,0.00
2013-7-21,-200,0,200,-100,-100,-100,0,0,100,0.00,0.00,0,-999,0,0.00
2013-7-22,-200,0,200,-100,-100,-100,0,0,100,0.00,0.00,0,-999,0,0.00
2013-7-23,-200,0,200,-100,-100,-100,0,0,100,0.00,0.00,0,-999,0,0.00
2013-7-24,-200,0,200,-100,-100,-100,0,0,100,0.00,0.00,0,-999,0,0.00
2013-7-25,-200,0,200,-100,-100,-100,0,0,100,0.00,0.00,0,-999,0,0.00
2013-7-26,-200,0,200,-100,-100,-100,0,0,100,0.00,0.00,0,-999,0,0.00
2013-7-27,-200,0,200,-100,-100,-100,0,0,100,0.00,0.00,0,-999,0,0.00
2013-7-28,-200,0,200,-100,-100,-100,0,0,100,0.00,0.00,0,-999,0,0.00
2013-7-29,-200,0,200,-100,-100,-100,0,0,100,0.00,0.00,0,-999,0,0.00
2013-7-30,-200,0,200,-100,-100,-100,0,0,100,0.00,0.00,0,-999,0,0.00
2013-7-31,-200,0,200,-100,-100,-100,0,0,100,0.00,0.00,0,-999,0,0.00
2013-8-1,-200,0,200,-100,-100,-100,0,0,100,0.00,0.00,0,-999,0,0.00
2013-8-2,-200,0,200,-100,-100,-100,0,0,100,0.00,0.00,0,-999,0,0.00
2013-8-3,-200,0,200,-100,-100,-100,0,0,100,0.00,0.00,0,-999,0,0.00
2013-8-4,-200,0,200,-100,-100,-100,0,0,100,0.00,0.00,0,-999,0,0.00
2013-8-5,-200,0,200,-100,-100,-100,0,0,100,0.00,0.00,0,-999,0,0.00
2013-8-6,-200,0,200,-100,-100,-100,0,0,100,0.00,0.00,0,-999,0,0.00
2013-8-7,-200,0,200,-100,-100,-100,0,0,100,0.00,0.00,0,-999,0,0.00
2013-8-8,-200,0,200,-100,-100,-100,0,0,100,0.00,0.00,0,-999,0,0.00
2013-8-9,-200,0,200,-100,-100,-100,0,0,100,0.00,0.00,0,-999,0,0.00
2013-8-10,-200,0,200,-100,-100,-100,0,0,100,0.00,0.00,0,-999,0,0.00
2013-8-11,-200,0,200,-100,-100,-100,0,0,100,0.00,0.00,0,-999,0,0.00
2013-8-12,-200,0,200,-100,-100,-100,0,0,100,0.00,0.00,0,-999,0,0.00
2013-8-13,-200,0,200,-100,-100,-100,0,0,100,0.00,0.00,0,-999,0,0.00
2013-8-14,-200,0,200,-100,-100,-100,0,0,100,0.00,0.00,0,-999,0,0.00
2013-8-15,-200,0,200,-100,-100,-100,0,0,100,0.00,0.00,0,-999,0,0.00
2013-8-16,-200,0,200,-100,-100,-100,0,0,100,0.00,0.00,0,-999,0,0.00
2013-8-17,-200,0,200,-100,-100,-100,0,0,100,0.00,0.00,0,-999,0,0.00
2013-8-18,-200,0,200,-100,-100,-100,0,0,100,0.00,0.00,0,-999,0,0.00
2013-8-19,-200,0,200,-100,-100,-100,0,0,100,0.00,0.00,0,-999,0,0.00
2013-8-20,-200,0,200,-100,-100,-100,0,0,100,0.00,0.00,0,-999,0,0.00
2013-8-21,-200,0,200,-100,-100,-100,0,0,100,0.00,0.00,0,-999,0,0.00
2013-8-22,-200,0,200,-100,-100,-100,0,0,100,0.00,0.00,0,-999,0,0.00
2013-8-23,-200,0,200,-100,-100,-100,0,0,100,0.00,0.00,0,-999,0,0.00
2013-8-24,-200,0,200,-100,-100,-100,0,0,100,0.00,0.00,0,-999,0,0.00
2013-8-25,-200,0,200,-100,-100,-100,0,0,100,0.00,0.00,0,-999,0,0.00
2013-8-26,-200,0,200,-100,-100,-100,0,0,100,0.00,0.00,0,-999,0,0.00
2013-8-27,-200,0,200,-100,-100,-100,0,0,100,0.00,0.00,0,-999,0,0.00
2013-8-28,-200,0,200,-100,-100,-100,0,0,100,0.00,0.00,0,-999,0,0.00
2013-8-29,-200,0,200,-100,-100,-100,0,0,100,0.00,0.00,0,-999,0,0.00
2013-8-30,-200,0,200,-100,-100,-100,0,0,100,0.00,0.00,0,-999,0,0.00
2013-8-31,-200,0,200,-100,-100,-100,0,0,100,0.00,0.00,0,-999,0,0.00
2013-9-1,-200,0,200,-100,-100,-100,0,0,100,0.00,0.00,0,-999,0,0.00
2013-9-2,-200,0,200,-100,-100,-100,0,0,100,0.00,0.00,0,-999,0,0.00
2013-9-3,-200,0,200,-100,-100,-100,0,0,100,0.00,0.00,0,-999,0,0.00
2013-9-4,-200,0,200,-100,-100,-100,0,0,100,0.00,0.00,0,-999,0,0.00
2013-9-5,-200,0,200,-100,-100,-100,0,0,100,0.00,0.00,0,-999,0,0.00
2013-9-6,-200,0,200,-100,-100,-100,0,0,100,0.00,0.00,0,-999,0,0.00
2013-9-7,-200,0,200,-100,-100,-100,0,0,100,0.00,0.00,0,-999,0,0.00
2013-9-8,-200,0,200,-100,-100,-100,0,0,100,0.00,0.00,0,-999,0,0.00
2013-9-9,-200,0,200,-100,-100,-100,0,0,100,0.00,0.00,0,-999,0,0.00
2013-9-10,-200,0,200,-100,-100,-100,0,0,100,0.00,0.00,0,-999,0,0.00
2013-9-11,-200,0,200,-100,-100,-100,0,0,100,0.00,0.00,0,-999,0,0.00
2013-9-12,-200,0,200,-100,-100,-100,0,0,100,0.00,0.00,0,-999,0,0.00
2013-9-13,-200,0,200,-100,-100,-100,0,0,100,0.00,0.00,0,-999,0,0.00
2013-9-14,-200,0,200,-100,-100,-100,0,0,100,0.00,0.00,0,-999,0,0.00
2013-9-15,-200,0,200,-100,-100,-100,0,0,100,0.00,0.00,0,-999,0,0.00
2013-9-16,-200,0,200,-100,-100,-100,0,0,100,0.00,0.00,0,-999,0,0.00
2013-9-17,-200,0,200,-100,-100,-100,0,0,100,0.00,0.00,0,-999,0,0.00
2013-9-18,-200,0,200,-100,-100,-100,0,0,100,0.00,0.00,0,-999,0,0.00
2013-9-19,-200,0,200,-100,-100,-100,0,0,100,0.00,0.00,0,-999,0,0.00
2013-9-20,-200,0,200,-100,-100,-100,0,0,100,0.00,0.00,0,-999,0,0.00
2013-10-3,-200,0,200,-100,-100,-100,0,0,100,0.00,0.00,0,-999,0,0.00
2013-10-4,-200,0,200,-100,-100,-100,0,0,100,0.00,0.00,0,-999,0,0.00
2013-10-5,-200,0,200,-100,-100,-100,0,0,100,0.00,0.00,0,-999,0,0.00
2013-10-6,-200,0,200,-100,-100,-100,0,0,100,0.00,0.00,0,-999,0,0.00
2013-10-7,-200,0,200,-100,-100,-100,0,0,100,0.00,0.00,0,-999,0,0.00
2013-10-8,-200,0,200,-100,-100,-100,0,0,100,0.00,0.00,0,-999,0,0.00
2013-10-9,-200,0,200,-100,-100,-100,0,0,100,0.00,0.00,0,-999,0,0.00
2013-10-10,-200,0,200,-100,-100,-100,0,0,100,0.00,0.00,0,-999,0,0.00
2013-10-11,-200,0,200,-100,-100,-100,0,0,100,0.00,0.00,0,-999,0,0.00
2013-10-12,-200,0,200,-100,-100,-100,0,0,100,0.00,0.00,0,-999,0,0.00
2013-10-13,-200,0,200,-100,-100,-100,0,0,100,0.00,0.00,0,-999,0,0.00
2013-10-14,-200,0,200,-100,-100,-100,0,0,100,0.00,0.00,0,-999,0,0.00
2013-10-15,-200,0,200,-100,-100,-100,0,0,100,0.00,0.00,0,-999,0,0.00
2013-10-16,-200,0,200,-100,-100,-100,0,0,100,0.00,0.00,0,-999,0,0.00
2013-10-17,-200,0,200,-100,-100,-100,0,0,100,0.00,0.00,0,-999,0,0.00
2013-10-18,-200,0,200,-100,-100,-100,0,0,100,0.00,0.00,0,-999,0,0.00
2013-10-19,-200,0,200,-100,-100,-100,0,0,100,0.00,0.00,0,-999,0,0.00
2013-10-20,-200,0,200,-100,-100,-100,0,0,100,0.00,0.00,0,-999,0,0.00
2013-10-21,-200,0,200,-100,-100,-100,0,0,100,0.00,0.00,0,-999,0,0.00
2013-10-22,-200,0,200,-100,-100,-100,0,0,100,0.00,0.00,0,-999,0,0.00
2013-10-23,-200,0,200,-100,-100,-100,0,0,100,0.00,0.00,0,-999,0,0.00
2013-10-24,-200,0,200,-100,-100,-100,0,0,100,0.00,0.00,0,-999,0,0.00
2013-10-25,-200,0,200,-100,-100,-100,0,0,100,0.00,0.00,0,-999,0,0.00
2013-10-26,-200,0,200,-100,-100,-100,0,0,100,0.00,0.00,0,-999,0,0.00
2013-10-27,-200,0,200,-100,-100,-100,0,0,100,0.00,0.00,0,-999,0,0.00
2013-10-28,-200,0,200,-100,-100,-100,0,0,100,0.00,0.00,0,-999,0,0.00
2013-10-29,-200,0,200,-100,-100,-100,0,0,100,0.00,0.00,0,-999,0,0.00
2013-10-30,-200,0,200,-100,-100,-100,0,0,100,0.00,0.00,0,-999,0,0.00
2013-10-31,-200,0,200,-100,-100,-100,0,0,100,0.00,0.00,0,-999,0,0.00
2013-11-1,-200,0,200,-100,-100,-100,0,0,100,0.00,0.00,0,-999,0,0.00
2013-11-2,-200,0,200,-100,-100,-100,0,0,100,0.00,0.00,0,-999,0,0.00
2013-11-3,-200,0,200,-100,-100,-100,0,0,100,0.00,0.00,0,-999,0,0.00
2013-11-4,-200,0,200,-100,-100,-100,0,0,100,0.00,0.00,0,-999,0,0.00
2013-11-5,-200,0,200,-100,-100,-100,0,0,100,0.00,0.00,0,-999,0,0.00
2013-11-6,-200,0,200,-100,-100,-100,0,0,100,0.00,0.00,0,-999,0,0.00
2013-11-7,-200,0,200,-100,-100,-100,0,0,100,0.00,0.00,0,-999,0,0.00
2013-11-8,-200,0,200,-100,-100,-100,0,0,100,0.00,0.00,0,-999,0,0.00
2013-11-9,-200,0,200,-100,-100,-100,0,0,100,0.00,0.00,0,-999,0,0.00
2013-11-10,-200,0,200,-100,-100,-100,0,0,100,0.00,0.00,0,-999,0,0.00
2013-11-11,-200,0,200,-100,-100,-100,0,0,100,0.00,0.00,0,-999,0,0.00
2013-11-12,-200,0,200,-100,-100,-100,0,0,100,0.00,0.00,0,-999,0,0.00
2013-11-13,-200,0,200,-100,-100,-100,0,0,100,0.00,0.00,0,-999,0,0.00
2013-11-14,-200,0,200,-100,-100,-100,0,0,100,0.00,0.00,0,-999,0,0.00
2013-11-15,-200,0,200,-100,-100,-100,0,0,100,0.00,0.00,0,-999,0,0.00
2013-11-16,-200,0,200,-100,-100,-100,0,0,100,0.00,0.00,0,-999,0,0.00
2013-11-17,-200,0,200,-100,-100,-100,0,0,100,0.00,0.00,0,-999,0,0.00
2013-11-18,-200,0,200,-100,-100,-100,0,0,100,0.00,0.00,0,-999,0,0.00
2013-11-19,-200,0,200,-100,-100,-100,0,0,100,0.00,0.00,0,-999,0,0.00
2013-11-20,-200,0,200,-100,-100,-100,0,0,100,0.00,0.00,0,-999,0,0.00
2013-11-21,-200,0,200,-100,-100,-100,0,0,100,0.00,0.00,0,-999,0,0.00
2013-11-22,-200,0,200,-100,-100,-100,0,0,100,0.00,0.00,0,-999,0,0.00
2013-11-23,-200,0,200,-100,-100,-100,0,0,100,0.00,0.00,0,-999,0,0.00
2013-11-24,-200,0,200,-100,-100,-100,0,0,100,0.00,0.00,0,-999,0,0.00
2013-11-25,-200,0,200,-100,-100,-100,0,0,100,0.00,0.00,0,-999,0,0.00
2013-11-26,-200,0,200,-100,-100,-100,0,0,100,0.00,0.00,0,-999,0,0.00
2013-11-27,-200,0,200,-100,-100,-100,0,0,100,0.00,0.00,0,-999,0,0.00
2013-11-28,-200,0,200,-100,-100,-100,0,0,100,0.00,0.00,0,-999,0,0.00
2013-11-29,-200,0,200,-100,-100,-100,0,0,100,0.00,0.00,0,-999,0,0.00
2013-11-30,-200,0,200,-100,-100,-100,0,0,100,0.00,0.00,0,-999,0,0.00
2013-12-1,-200,0,200,-100,-100,-100,0,0,100,0.00,0.00,0,-999,0,0.00
2013-12-2,-200,0,200,-100,-100,-100,0,0,100,0.00,0.00,0,-999,0,0.00
2013-12-3,-200,0,200,-100,-100,-100,0,0,100,0.00,0.00,0,-999,0,0.00